This is the latest recevied weather packets stored in our database for station/object K0QED. If no packets are shown the sender has not sent any weather packets the latest 10 day(s).
| Time | Temp. | Humidity | Pressure | Rain* | Wind** | Luminosity | Snow |
|---|---|---|---|---|---|---|---|
| 1788294680 | 25.56° C | 34% | 1025.7 hPa | 0 mm | - | 703 W/m² | - |
| 1788294380 | 26.11° C | 33% | 1026 hPa | 0 mm | - | 632 W/m² | - |
| 1788294076 | 25.56° C | 34% | 1026 hPa | 0 mm | - | 639 W/m² | - |
| 1788293772 | 25.56° C | 34% | 1025.6 hPa | 0 mm | - | 664 W/m² | - |
| 1788293471 | 24.44° C | 36% | 1026 hPa | 0 mm | - | 669 W/m² | - |
| 1788293170 | 24.44° C | 36% | 1026 hPa | 0 mm | - | 165 W/m² | - |
| 1788292865 | 25.56° C | 35% | 1025.9 hPa | 0 mm | - | 121 W/m² | - |
| 1788292582 | 26.67° C | 33% | 1026.1 hPa | 0 mm | - | 665 W/m² | - |
| 1788292263 | 25.56° C | 34% | 1026 hPa | 0 mm | - | 669 W/m² | - |
| 1788291958 | 25.56° C | 35% | 1026 hPa | 0 mm | - | 658 W/m² | - |
| 1788291654 | 26.11° C | 34% | 1026.1 hPa | 0 mm | - | 654 W/m² | - |
| 1788291348 | 26.11° C | 34% | 1026.2 hPa | 0 mm | - | 643 W/m² | - |
| 1788291043 | 25.56° C | 35% | 1026.2 hPa | 0 mm | - | 649 W/m² | - |
| 1788290738 | 26.11° C | 34% | 1026.4 hPa | 0 mm | - | 663 W/m² | - |
| 1788290434 | 25.56° C | 36% | 1026.1 hPa | 0 mm | - | 671 W/m² | - |
| 1788290130 | 25° C | 34% | 1026.4 hPa | 0 mm | - | 676 W/m² | - |
| 1788289826 | 25.56° C | 37% | 1026.4 hPa | 0 mm | - | 676 W/m² | - |
| 1788289521 | 25.56° C | 38% | 1026.5 hPa | 0 mm | - | 645 W/m² | - |
| 1788289220 | 25° C | 39% | 1026.2 hPa | 0 mm | - | 627 W/m² | - |
| 1788288919 | 24.44° C | 37% | 1026.5 hPa | 0 mm | - | 674 W/m² | - |
| 1788288618 | 24.44° C | 39% | 1026.5 hPa | 0 mm | - | 678 W/m² | - |
| 1788288314 | 25° C | 37% | 1026.6 hPa | 0 mm | - | 676 W/m² | - |
| 1788288009 | 23.89° C | 40% | 1026.7 hPa | 0 mm | - | 665 W/m² | - |
| 1788287703 | 23.89° C | 41% | 1026.5 hPa | 0 mm | - | 660 W/m² | - |
| 1788287399 | 24.44° C | 39% | 1026.7 hPa | 0 mm | - | 626 W/m² | - |
* Rain latest hour (hover to see other rain measurements)
** Current wind speed in m/s (hover to see current wind gust speed)